Location: Vesunti
(61.5000°N, 22.8333°E)
Time: 06:49:59
(UTC+00:00)

Cosmos 841 Rocket - Pass Details

Date: 17 February 2020
Orbit: 746 x 773 km, 74.0° (Epoch: 30 March)

Event Time Altitude Azimuth Distance (km) Brightness Sun altitude
Exits shadow 04:07:57 - 324° (NW) 2,790 6.1 -14.8°
Reaches altitude 10° 04:09:15 10° 328° (NNW) 2,298 5.7 -14.7°
Maximum altitude 04:14:21 53° 45° (NE) 938 4.2 -14.1°
Drops below altitude 10° 04:19:28 10° 123° (ESE) 2,304 6.9 -13.5°
Sets 04:21:55 0° 128° (SE) 3,232 7.7 -13.2°
